Home   Weather   Berkeley   Past weeks
Flag for USA

Past Weather in Berkeley, California, USA — Yesterday and Last 2 Weeks

Now
63 °F

Cloudy.


Feels Like: 63 °F
Forecast: 60 / 53 °F
Wind: 7 mph from Northwest

Location: Metro Oakland International Airport

Current Time: Mar 26, 2019 at 5:49:23 pm

Latest Report: Mar 26, 2019 at 4:53 pm


Visibility: 10 mi

Pressure: 29.96 "Hg

Humidity: 56%

Dew Point: 47 °F

Location of BerkeleyLocation

Past Weather in Berkeley — Graph

°F

Berkeley Temperature Yesterday

Maximum temperature yesterday: 63 °F (at 11:53 am)
Minimum temperature yesterday: 50 °F (at 3:53 am)
Average temperature yesterday: 56 °F

High & Low Weather Summary for the Past Weeks

 TemperatureHumidityPressure
High71 °F (Mar 17, 3:53 pm)100% (Mar 20, 6:53 am)30.30 "Hg (Mar 20, 6:53 am)
Low40 °F (Mar 14, 4:53 am)22% (Mar 14, 12:53 pm)29.80 "Hg (Mar 19, 4:53 pm)
Average55 °F74%30.09 "Hg
* Reported Mar 11 3:53 pm — Mar 26 3:53 pm, Berkeley. Weather by CustomWeather, © 2019

Note: Actual official high and low records may vary slightly from our data, if they occured in-between our weather recording intervals... More about our weather records

Advertising

Berkeley Weather History for the Previous 24 Hours

Scroll right to see more
 ConditionsComfort  
Time TempWeatherWind HumidityBarometerVisibility
3:53 pm
Tue, Mar 26
64 °FBroken clouds.8 mph56%29.98 "Hg10 mi
2:53 pm64 °FBroken clouds.5 mph56%30.00 "Hg10 mi
1:53 pm61 °FScattered clouds.5 mph62%30.02 "Hg10 mi
12:53 pm60 °FBroken clouds.6 mph75%30.04 "Hg10 mi
11:53 am58 °FScattered clouds.6 mph78%30.06 "Hg10 mi
10:53 am57 °FScattered clouds.5 mph81%30.07 "Hg10 mi
9:53 am55 °FPassing clouds.6 mph87%30.07 "Hg10 mi
8:53 am54 °FPassing clouds.3 mph100%30.06 "Hg10 mi
7:53 am48 °FScattered clouds.3 mph100%30.06 "Hg10 mi
6:53 am50 °FFog.3 mph100%30.06 "Hg7 mi
5:53 am51 °FPassing clouds.3 mph100%30.05 "Hg10 mi
4:53 am52 °FOvercast.No wind100%30.05 "Hg10 mi
3:53 am53 °FMostly cloudy.3 mph100%30.06 "Hg10 mi
2:53 am53 °FOvercast.8 mph100%30.07 "Hg10 mi
1:53 am53 °FPartly cloudy.No wind100%30.08 "Hg10 mi
1:05 am53 °FOvercast.No wind100%30.08 "Hg10 mi
12:53 am53 °FLight rain. Mostly cloudy.No wind100%30.08 "Hg8 mi
12:05 am53 °FLight rain. Fog.3 mph100%30.08 "Hg6 mi
11:53 pm
Mon, Mar 25
53 °FLight rain. Fog.3 mph100%30.08 "Hg6 mi
11:17 pm54 °FLight rain. Fog.6 mph100%30.08 "Hg4 mi
10:53 pm54 °FLight rain. Fog.No wind100%30.08 "Hg5 mi
9:53 pm55 °FLight rain. Mostly cloudy.9 mph100%30.07 "Hg8 mi
8:53 pm54 °FLight rain. Mostly cloudy.8 mph100%30.07 "Hg10 mi
8:18 pm54 °FLight rain. Fog.12 mph100%30.07 "Hg4 mi
7:53 pm56 °FLight rain. Fog.10 mph100%30.07 "Hg6 mi
7:18 pm57 °FRain. Fog.12 mph100%30.07 "Hg5 mi
6:53 pm57 °FRain. Fog.10 mph100%30.07 "Hg5 mi
6:26 pm57 °FRain. Fog.10 mph100%30.07 "Hg5 mi
5:53 pm57 °FRain. Fog.13 mph100%30.06 "Hg5 mi
Weather by CustomWeather, © 2019

See weather overview